Hourly Data Report for October 15, 2021

QUALICUM BEACH AIRPORT
BRITISH COLUMBIA
Current Station Operator: ECCC - MSC

49°20'14.000" N
124°23'38.000" W
58.20 m
1026562
71766
VOQ

Download Data

Hourly Data (October 2021)
Hourly Data Report for October 15, 2021
TIME
LST
Temp Definition
°C
Dew Point Definition
°C
Rel Hum Definition
%
Precip. Amount Definition
mm

Wind Dir Definition
10's deg

Wind Spd Definition
km/h
Visibility Definition
km
Stn Press Definition
kPa
Hmdx Definition


Wind Chill Definition


Weather Definition


00:00 10.1 8.9 92 0.0 12 11   101.11     LegendNANA
01:00 10.0 9.0 93 0.0 26 3   101.11     LegendNANA
02:00 9.7 8.8 94 0.1 0 1   101.11     LegendNANA
03:00 9.4 8.8 96 0.1 15 9   101.00     LegendNANA
04:00 10.4 8.3 87 0.0 13 7   100.99     LegendNANA
05:00 10.4 8.3 86 0.0 13 10   100.93     LegendNANA
06:00 10.7 8.3 85 0.0 13 12   100.89     LegendNANA
07:00 11.1 8.1 82 0.0 12 14   100.88     LegendNANA
08:00 11.2 9.0 86 0.0 13 19   100.84     LegendNANA
09:00 11.2 9.5 89 0.0 12 22   100.83     LegendNANA
10:00 11.9 9.7 87 0.0 12 23   100.85     LegendNANA
11:00 11.8 10.0 89 0.1 12 14   100.88     LegendNANA
12:00 11.9 10.3 90 0.0 11 17   100.86     LegendNANA
13:00 12.4 10.4 88 0.0 12 21   100.81     LegendNANA
14:00 11.9 10.1 88 0.0 11 21   100.78     LegendNANA
15:00 12.0 10.0 88 0.0 12 18   100.77     LegendNANA
16:00 11.9 10.1 89 0.0 12 19   100.74     LegendNANA
17:00 12.2 10.5 89 0.0 12 17   100.70     LegendNANA
18:00 12.1 10.2 88 0.1 12 18   100.67     LegendNANA
19:00 11.9 10.2 89 0.0 13 20   100.66     LegendNANA
20:00 12.0 10.2 89 0.0 12 20   100.67     LegendNANA
21:00 11.6 10.3 92 0.0 12 17   100.66     LegendNANA
22:00 11.7 10.3 91 0.0 12 19   100.66     LegendNANA
23:00 11.6 10.2 91 0.0 12 17   100.66     LegendNANA

Notes on Data Quality.

Legend

  • E = Estimated
  • M = Missing
  • NA = Not Available*
  • [empty] = Indicates an unobserved value
Date modified: